EW6800 Weather Reports


time (UTC)temp
C
wind
direction
speed
KPH
gust
KPH
rain 1hr
cm
rain 24hr
cm
rain mn
cm
humidity
%
barometer
mb
20260508023541 12 310 1.6 6.4 0.00 0.00 0.00 87 1017.2
20260508023050 12 310 3.2 8.0 0.00 0.00 0.00 87 1017.3
20260508022540 12 310 3.2 8.0 0.00 0.00 0.00 86 1017.2
20260508022041 12 311 4.8 8.0 0.00 0.00 0.00 85 1017.2
20260508021550 13 311 4.8 8.0 0.00 0.00 0.00 85 1017.2
20260508021040 13 312 4.8 8.0 0.00 0.00 0.00 84 1017.2
20260508020547 13 316 4.8 8.0 0.00 0.00 0.00 84 1017.2
20260508020050 13 319 4.8 8.0 0.00 0.00 0.00 84 1017.3
20260508015545 13 312 4.8 12.9 0.00 0.00 0.00 83 1017.3
20260508015044 13 306 4.8 12.9 0.00 0.00 0.00 83 1017.3
20260508014600 13 314 8.0 12.9 0.00 0.00 0.00 83 1017.3
20260508014047 13 312 9.7 12.9 0.00 0.00 0.00 82 1017.3
20260508013545 13 318 8.0 12.9 0.00 0.00 0.00 82 1017.2
20260508013056 13 317 6.4 12.9 0.00 0.00 0.00 81 1017.3
20260508012550 14 319 6.4 14.5 0.00 0.00 0.00 82 1017.3
20260508012045 14 306 8.0 14.5 0.00 0.00 0.00 81 1017.4
20260508011608 14 310 8.0 12.9 0.00 0.00 0.00 81 1017.4
20260508011044 15 309 6.4 14.5 0.00 0.00 0.00 80 1017.4
20260508010544 15 310 8.0 16.1 0.00 0.00 0.00 80 1017.4
20260508010050 15 316 11.3 16.1 0.00 0.00 0.00 80 1017.5
20260508005546 15 309 9.7 16.1 0.00 0.00 0.00 79 1017.5
20260508005044 15 314 9.7 16.1 0.00 0.00 0.00 78 1017.4
20260508004556 15 313 11.3 16.1 0.00 0.00 0.00 78 1017.7
20260508004043 16 300 9.7 16.1 0.00 0.00 0.00 78 1017.7
20260508003544 16 304 11.3 16.1 0.00 0.00 0.00 78 1017.7
20260508003051 16 309 11.3 16.1 0.00 0.00 0.00 78 1017.7
20260508002545 16 311 9.7 16.1 0.00 0.00 0.00 77 1017.7
20260508002045 16 301 9.7 16.1 0.00 0.00 0.00 76 1017.6
20260508001553 16 320 9.7 16.1 0.00 0.00 0.00 76 1017.6
20260508001044 17 300 9.7 16.1 0.00 0.00 0.00 74 1017.7
20260508000546 17 311 8.0 14.5 0.00 0.00 0.00 75 1017.6
20260508000052 17 294 6.4 16.1 0.00 0.00 0.00 74 1017.6
20260507235545 17 299 6.4 16.1 0.00 0.00 0.00 73 1017.6
20260507235045 18 284 6.4 16.1 0.00 0.00 0.00 71 1017.6
20260507234553 18 302 9.7 17.7 0.00 0.00 0.00 70 1017.6
20260507234045 19 309 8.0 17.7 0.00 0.00 0.00 69 1017.7
20260507233545 19 303 9.7 17.7 0.00 0.00 0.00 68 1017.7
20260507233056 20 288 8.0 16.1 0.00 0.00 0.00 67 1017.8
20260507232544 20 309 6.4 14.5 0.00 0.00 0.00 66 1017.7
20260507232045 20 300 6.4 12.9 0.00 0.00 0.00 65 1017.7
20260507231555 21 296 6.4 12.9 0.00 0.00 0.00 66 1017.7
20260507231046 21 296 6.4 12.9 0.00 0.00 0.00 64 1017.8
20260507230546 21 293 6.4 12.9 0.00 0.00 0.00 65 1017.8
20260507230051 21 297 6.4 12.9 0.00 0.00 0.00 63 1017.8
20260507225543 21 305 4.8 12.9 0.00 0.00 0.00 63 1017.8
20260507225045 21 302 4.8 11.3 0.00 0.00 0.00 63 1017.9
20260507224550 21 298 4.8 11.3 0.00 0.00 0.00 63 1017.8
20260507224101 21 304 3.2 12.9 0.00 0.00 0.00 59 1017.8
20260507223544 21 293 4.8 12.9 0.00 0.00 0.00 62 1017.8
20260507223058 21 302 4.8 11.3 0.00 0.00 0.00 65 1017.9
20260507222545 21 294 4.8 11.3 0.00 0.00 0.00 66 1017.8
20260507222047 21 296 4.8 8.0 0.00 0.00 0.00 65 1018.0
20260507221556 21 292 4.8 9.7 0.00 0.00 0.00 65 1018.0
20260507221044 21 296 4.8 11.3 0.00 0.00 0.00 65 1018.0
20260507220543 21 292 4.8 12.9 0.00 0.00 0.00 67 1018.1
20260507220059 21 291 6.4 14.5 0.00 0.00 0.00 68 1018.1
20260507215545 21 295 6.4 14.5 0.00 0.00 0.00 68 1018.0
20260507215045 21 295 6.4 12.9 0.00 0.00 0.00 67 1018.1
20260507214556 21 289 6.4 12.9 0.00 0.00 0.00 68 1018.2
20260507214045 21 319 6.4 11.3 0.00 0.00 0.00 67 1018.1
20260507213548 21 292 4.8 11.3 0.00 0.00 0.00 67 1018.2
20260507213056 21 301 4.8 11.3 0.00 0.00 0.00 68 1018.3
20260507212546 21 315 6.4 11.3 0.00 0.00 0.00 68 1018.4
20260507212044 21 309 4.8 12.9 0.00 0.00 0.00 69 1018.4
20260507211553 21 315 6.4 12.9 0.00 0.00 0.00 68 1018.5
20260507211043 21 293 6.4 11.3 0.00 0.00 0.00 69 1018.6
20260507210544 21 307 4.8 11.3 0.00 0.00 0.00 70 1018.6
20260507210058 20 294 3.2 11.3 0.00 0.00 0.00 69 1018.6
20260507205544 20 291 4.8 11.3 0.00 0.00 0.00 70 1018.6
20260507205044 20 307 3.2 11.3 0.00 0.00 0.00 69 1018.7
20260507204552 20 316 3.2 11.3 0.00 0.00 0.00 71 1018.7
20260507204043 20 322 6.4 11.3 0.00 0.00 0.00 70 1018.7
20260507203544 20 306 4.8 11.3 0.00 0.00 0.00 73 1018.8
20260507203048 20 312 4.8 11.3 0.00 0.00 0.00 71 1018.8
20260507202542 20 321 4.8 11.3 0.00 0.00 0.00 72 1018.8
20260507202044 20 298 3.2 8.0 0.00 0.00 0.00 73 1018.8
20260507201607 19 317 4.8 8.0 0.00 0.00 0.00 73 1018.9
20260507201047 19 313 3.2 8.0 0.00 0.00 0.00 74 1018.9
20260507200546 19 316 4.8 9.7 0.00 0.00 0.00 73 1018.8
20260507200058 18 326 4.8 9.7 0.00 0.00 0.00 73 1018.8
20260507195545 18 309 4.8 9.7 0.00 0.00 0.00 74 1018.8
20260507195046 18 313 3.2 8.0 0.00 0.00 0.00 76 1018.9
20260507194557 18 322 3.2 8.0 0.00 0.00 0.00 76 1018.8
20260507194043 18 315 3.2 8.0 0.00 0.00 0.00 77 1018.8
20260507193543 18 315 3.2 8.0 0.00 0.00 0.00 76 1018.9
20260507193056 18 315 3.2 8.0 0.00 0.00 0.00 77 1019.0
20260507192547 17 317 3.2 8.0 0.00 0.00 0.00 77 1019.0
20260507192040 17 316 3.2 8.0 0.00 0.00 0.00 78 1019.1
20260507191548 17 316 3.2 8.0 0.00 0.00 0.00 78 1019.2
20260507191043 17 316 3.2 8.0 0.00 0.00 0.00 78 1019.1
20260507190543 17 317 4.8 8.0 0.00 0.00 0.00 78 1019.1
20260507190056 17 302 3.2 8.0 0.00 0.00 0.00 79 1019.2
20260507185543 17 303 3.2 8.0 0.00 0.00 0.00 79 1019.2
20260507185044 16 299 4.8 8.0 0.00 0.00 0.00 79 1019.2
20260507184601 16 313 3.2 8.0 0.00 0.00 0.00 79 1019.3
20260507184044 16 313 4.8 8.0 0.00 0.00 0.00 80 1019.3
20260507183548 16 315 0.0 6.4 0.00 0.00 0.00 80 1019.4
20260507183053 16 0 1.6 6.4 0.00 0.00 0.00 80 1019.3
20260507182545 16 323 3.2 6.4 0.00 0.00 0.00 80 1019.4
20260507182044 16 323 3.2 6.4 0.00 0.00 0.00 80 1019.3
20260507181549 16 309 1.6 6.4 0.00 0.00 0.00 81 1019.2
20260507181044 15 309 1.6 6.4 0.00 0.00 0.00 81 1019.1
20260507180545 15 329 1.6 6.4 0.00 0.00 0.00 82 1019.1
20260507180056 15 315 1.6 6.4 0.00 0.00 0.00 82 1019.1
20260507175543 15 313 0.0 6.4 0.00 0.00 0.00 82 1019.2
20260507175043 15 320 3.2 6.4 0.00 0.00 0.00 81 1019.2
20260507174604 15 327 3.2 8.0 0.00 0.00 0.00 81 1019.1
20260507174044 15 330 3.2 8.0 0.00 0.00 0.00 82 1019.1
20260507173544 15 330 3.2 6.4 0.00 0.00 0.00 81 1019.1
20260507173059 15 331 3.2 6.4 0.00 0.00 0.00 80 1019.1
20260507172547 16 0 0.0 1.6 0.00 0.00 0.00 80 1018.9
20260507172047 16 0 0.0 0.0 0.00 0.00 0.00 78 1018.9
20260507171602 16 0 0.0 0.0 0.00 0.00 0.00 78 1018.9
20260507171045 16 0 0.0 0.0 0.00 0.00 0.00 77 1018.9
20260507170544 16 0 0.0 0.0 0.00 0.00 0.00 76 1018.8
20260507170052 17 0 0.0 0.0 0.00 0.00 0.00 75 1018.9
20260507165543 17 0 0.0 0.0 0.00 0.00 0.00 75 1018.9
20260507165043 17 0 0.0 0.0 0.00 0.00 0.00 75 1018.9
20260507164552 17 0 0.0 0.0 0.00 0.00 0.00 76 1018.9
20260507164043 17 0 0.0 0.0 0.00 0.00 0.00 75 1018.8
20260507163544 17 0 0.0 0.0 0.00 0.00 0.00 75 1018.9
20260507163101 17 0 0.0 0.0 0.00 0.00 0.00 74 1018.9
20260507162543 17 0 0.0 0.0 0.00 0.00 0.00 74 1019.0
20260507162043 17 0 0.0 0.0 0.00 0.00 0.00 73 1019.0
20260507161555 17 0 0.0 0.0 0.00 0.00 0.00 73 1019.0
20260507161044 17 0 0.0 0.0 0.00 0.00 0.00 72 1018.9
20260507160543 17 0 0.0 0.0 0.00 0.00 0.00 72 1018.9
20260507160055 17 0 0.0 0.0 0.00 0.00 0.00 72 1018.8
20260507155543 17 0 0.0 0.0 0.00 0.00 0.00 75 1018.9
20260507155043 17 0 0.0 0.0 0.00 0.00 0.00 75 1018.9
20260507154554 17 0 0.0 0.0 0.00 0.00 0.00 75 1018.9
20260507154044 17 0 0.0 0.0 0.00 0.00 0.00 74 1018.9
20260507153543 17 0 0.0 0.0 0.00 0.00 0.00 74 1018.9
20260507153051 17 0 0.0 0.0 0.00 0.00 0.00 74 1018.8
20260507152543 16 0 0.0 0.0 0.00 0.00 0.00 75 1018.7
20260507152044 16 0 0.0 0.0 0.00 0.00 0.00 76 1018.9
20260507151555 16 0 0.0 0.0 0.00 0.00 0.00 76 1018.8
20260507151043 16 0 0.0 0.0 0.00 0.00 0.00 77 1018.8
20260507150544 16 0 0.0 0.0 0.00 0.00 0.00 78 1018.8
20260507150054 16 0 0.0 0.0 0.00 0.00 0.00 79 1018.8
20260507145544 15 0 0.0 0.0 0.00 0.00 0.00 80 1018.7
20260507145043 15 0 0.0 0.0 0.00 0.00 0.00 80 1018.8
20260507144610 15 0 0.0 0.0 0.00 0.00 0.00 81 1018.8
20260507144044 14 0 0.0 0.0 0.00 0.00 0.00 81 1018.7
20260507143544 14 0 0.0 0.0 0.00 0.00 0.00 80 1018.7
20260507143055 13 0 0.0 0.0 0.00 0.00 0.00 81 1018.8
20260507142543 13 0 0.0 0.0 0.00 0.00 0.00 81 1018.7
20260507142043 13 0 0.0 3.2 0.00 0.00 0.00 81 1018.7
20260507141622 13 0 0.0 3.2 0.00 0.00 0.00 81 1018.6
20260507141043 13 0 0.0 3.2 0.00 0.00 0.00 80 1018.5
20260507140544 13 65 0.0 0.0 0.00 0.00 0.00 82 1018.6
20260507140051 13 0 0.0 0.0 0.00 0.00 0.00 87 1018.6
20260507135548 12 0 0.0 0.0 0.00 0.00 0.00 88 1018.5
20260507135045 12 0 0.0 0.0 0.00 0.00 0.00 89 1018.4
20260507134551 12 0 0.0 0.0 0.00 0.00 0.00 88 1018.6
20260507134043 12 0 0.0 0.0 0.00 0.00 0.00 88 1018.5
20260507133544 12 0 0.0 0.0 0.00 0.00 0.00 88 1018.4
20260507133052 12 0 0.0 1.6 0.00 0.00 0.00 87 1018.3
20260507132543 13 0 0.0 3.2 0.00 0.00 0.00 86 1018.2
20260507132043 13 306 1.6 3.2 0.00 0.00 0.00 85 1018.2
20260507131549 13 306 0.0 4.8 0.00 0.00 0.00 84 1018.3
20260507131043 13 306 0.0 4.8 0.00 0.00 0.00 82 1018.2
20260507130544 14 306 3.2 4.8 0.00 0.00 0.00 82 1018.2
20260507130053 14 306 1.6 4.8 0.00 0.00 0.00 81 1018.1
20260507125544 14 306 1.6 4.8 0.00 0.00 0.00 81 1018.1
20260507125044 14 306 1.6 4.8 0.00 0.00 0.00 81 1018.1
20260507124556 14 306 1.6 4.8 0.00 0.00 0.00 80 1018.0
20260507124046 15 306 1.6 4.8 0.00 0.00 0.00 80 1018.1
20260507123544 15 306 3.2 4.8 0.00 0.00 0.00 80 1018.2
20260507123054 14 306 1.6 4.8 0.00 0.00 0.00 80 1018.2
20260507122544 14 306 1.6 4.8 0.00 0.00 0.00 80 1018.2
20260507122044 14 306 1.6 4.8 0.00 0.00 0.00 80 1018.2
20260507121553 14 306 3.2 4.8 0.00 0.00 0.00 80 1018.2
20260507121043 14 306 3.2 4.8 0.00 0.00 0.00 81 1018.3
20260507120543 14 306 3.2 4.8 0.00 0.00 0.00 82 1018.3
20260507120050 13 306 1.6 4.8 0.00 0.00 0.00 82 1018.3
20260507115543 13 306 3.2 4.8 0.00 0.00 0.00 83 1018.3
20260507115043 13 306 3.2 4.8 0.00 0.00 0.00 83 1018.4
20260507114555 13 306 3.2 4.8 0.00 0.00 0.00 84 1018.4
20260507114047 13 306 1.6 4.8 0.00 0.00 0.00 85 1018.4
20260507113543 12 0 0.0 6.4 0.00 0.00 0.00 85 1018.4
20260507113056 12 306 3.2 6.4 0.00 0.00 0.00 85 1018.6
20260507112543 12 306 3.2 8.0 0.00 0.00 0.00 86 1018.6
20260507112044 12 306 3.2 8.0 0.00 0.00 0.00 87 1018.5
20260507111552 11 309 3.2 6.4 0.00 0.00 0.00 90 1018.5
20260507111047 11 309 3.2 6.4 0.00 0.00 0.00 91 1018.5
20260507110545 11 309 3.2 4.8 0.00 0.00 0.00 90 1018.6
20260507110053 11 309 3.2 4.8 0.00 0.00 0.00 90 1018.5
20260507105543 11 309 1.6 3.2 0.00 0.00 0.00 89 1018.5
20260507105047 11 309 1.6 3.2 0.00 0.00 0.00 86 1018.4
20260507104555 12 309 1.6 3.2 0.00 0.00 0.00 84 1018.4
20260507104047 12 309 1.6 3.2 0.00 0.00 0.00 84 1018.5
20260507103543 13 0 0.0 0.0 0.00 0.00 0.00 84 1018.4
20260507103050 13 0 0.0 0.0 0.00 0.00 0.00 84 1018.6
20260507102544 13 0 0.0 0.0 0.00 0.00 0.00 84 1018.6
20260507102045 13 0 0.0 0.0 0.00 0.00 0.00 84 1018.6
20260507101552 13 0 0.0 0.0 0.00 0.00 0.00 85 1018.5
20260507101047 13 0 0.0 0.0 0.00 0.00 0.00 85 1018.5
20260507100544 13 0 0.0 0.0 0.00 0.00 0.00 85 1018.4
20260507100215 13 0 0.0 0.0 0.00 0.00 0.00 84 1018.5
20260507095545 13 0 0.0 0.0 0.00 0.00 0.00 83 1018.6
20260507095045 13 0 0.0 0.0 0.00 0.00 0.00 83 1018.5
20260507094550 13 0 0.0 0.0 0.00 0.00 0.00 82 1018.6
20260507094045 13 0 0.0 0.0 0.00 0.00 0.00 82 1018.6
20260507093544 13 0 0.0 0.0 0.00 0.00 0.00 84 1018.7
20260507093059 13 0 0.0 0.0 0.00 0.00 0.00 83 1018.6
20260507092545 13 0 0.0 0.0 0.00 0.00 0.00 84 1018.6
20260507092048 13 0 0.0 0.0 0.00 0.00 0.00 85 1018.8
20260507091557 13 0 0.0 0.0 0.00 0.00 0.00 85 1018.8
20260507091044 13 0 0.0 0.0 0.00 0.00 0.00 85 1018.7
20260507090544 13 0 0.0 0.0 0.00 0.00 0.00 85 1018.8
20260507090157 13 0 0.0 0.0 0.00 0.00 0.00 84 1018.9
20260507085540 13 0 0.0 0.0 0.00 0.00 0.00 84 1018.9
20260507085047 13 0 0.0 0.0 0.00 0.00 0.00 85 1018.9
20260507084552 13 0 0.0 0.0 0.00 0.00 0.00 84 1019.0
20260507084044 13 0 0.0 1.6 0.00 0.00 0.00 84 1018.9
20260507083544 13 0 0.0 3.2 0.00 0.00 0.00 85 1019.0
20260507083052 12 309 0.0 3.2 0.00 0.00 0.00 85 1019.0
20260507082546 13 309 1.6 3.2 0.00 0.00 0.00 85 1019.1
20260507082044 13 309 1.6 4.8 0.00 0.00 0.00 85 1019.1
20260507081550 13 309 1.6 6.4 0.00 0.00 0.00 85 1019.1
20260507081044 12 309 3.2 6.4 0.00 0.00 0.00 85 1019.3
20260507080543 12 309 3.2 6.4 0.00 0.00 0.00 85 1019.1
20260507075543 12 309 3.2 6.4 0.00 0.00 0.00 87 1019.3
20260507075045 12 309 3.2 6.4 0.00 0.00 0.00 88 1019.2
20260507074552 12 309 4.8 8.0 0.00 0.00 0.00 89 1019.1
20260507074044 12 309 4.8 8.0 0.00 0.00 0.00 90 1019.2
20260507073545 12 309 4.8 8.0 0.00 0.00 0.00 91 1019.3
20260507073100 12 312 6.4 9.7 0.00 0.00 0.00 93 1019.3
20260507072545 12 311 6.4 9.7 0.00 0.00 0.00 94 1019.3
20260507072045 11 314 6.4 9.7 0.00 0.00 0.00 94 1019.3
20260507071556 11 315 4.8 9.7 0.00 0.00 0.00 94 1019.3
20260507071043 11 315 6.4 9.7 0.00 0.00 0.00 95 1019.3
20260507070544 11 313 4.8 9.7 0.00 0.00 0.00 96 1019.2
20260507070058 11 313 4.8 12.9 0.00 0.00 0.00 96 1019.4
20260507065547 11 315 8.0 12.9 0.00 0.00 0.00 96 1019.3
20260507065043 10 311 6.4 12.9 0.00 0.00 0.00 96 1019.3
20260507064551 10 315 6.4 9.7 0.00 0.00 0.00 96 1019.2
20260507064044 10 317 4.8 8.0 0.00 0.00 0.00 96 1019.3
20260507063545 10 314 4.8 8.0 0.00 0.00 0.00 96 1019.3
20260507063054 10 315 4.8 8.0 0.00 0.00 0.00 96 1019.3
20260507062544 10 315 4.8 8.0 0.00 0.00 0.00 96 1019.2
20260507062044 10 314 3.2 8.0 0.00 0.00 0.00 96 1019.3
20260507061552 10 314 3.2 9.7 0.00 0.00 0.00 96 1019.4
20260507061044 10 314 6.4 11.3 0.00 0.00 0.00 95 1019.3
20260507060543 10 310 4.8 12.9 0.00 0.00 0.00 96 1019.4
20260507060056 11 310 3.2 12.9 0.00 0.00 0.00 96 1019.4
20260507055545 11 313 6.4 12.9 0.00 0.00 0.00 96 1019.4
20260507055044 11 314 6.4 12.9 0.00 0.00 0.00 96 1019.4
20260507054551 11 311 9.7 12.9 0.00 0.00 0.00 96 1019.4
20260507054043 10 316 6.4 9.7 0.00 0.00 0.00 96 1019.4
20260507053544 11 311 1.6 4.8 0.00 0.00 0.00 96 1019.6
20260507053056 11 311 0.0 6.4 0.00 0.00 0.00 96 1019.5
20260507052543 10 312 1.6 6.4 0.00 0.00 0.00 96 1019.6
20260507052045 9 312 3.2 6.4 0.00 0.00 0.00 96 1019.6
20260507051552 9 304 3.2 4.8 0.00 0.00 0.00 95 1019.6
20260507051044 9 304 3.2 6.4 0.00 0.00 0.00 95 1019.6
20260507050544 9 303 3.2 8.0 0.00 0.00 0.00 95 1019.6
20260507050052 9 303 3.2 8.0 0.00 0.00 0.00 95 1019.6
20260507045547 9 304 3.2 8.0 0.00 0.00 0.00 96 1019.7
20260507045045 9 304 3.2 8.0 0.00 0.00 0.00 96 1019.7
20260507044559 9 304 3.2 8.0 0.00 0.00 0.00 96 1019.6
20260507044043 9 306 4.8 9.7 0.00 0.00 0.00 96 1019.6
20260507043543 9 310 4.8 12.9 0.00 0.00 0.00 96 1019.7
20260507043056 10 311 6.4 12.9 0.00 0.00 0.00 95 1019.5
20260507042544 10 309 8.0 12.9 0.00 0.00 0.00 95 1019.5
20260507042047 10 313 8.0 12.9 0.00 0.00 0.00 95 1019.5
20260507041550 10 314 8.0 17.7 0.00 0.00 0.00 95 1019.4
20260507041045 10 312 11.3 17.7 0.00 0.00 0.00 95 1019.3
20260507040547 10 309 11.3 17.7 0.00 0.00 0.00 95 1019.3
20260507040051 10 315 9.7 16.1 0.00 0.00 0.00 95 1019.2
20260507035544 10 309 11.3 16.1 0.00 0.00 0.00 95 1019.3
20260507035044 10 294 8.0 14.5 0.00 0.00 0.00 95 1019.2
20260507034551 10 315 8.0 14.5 0.00 0.00 0.00 95 1019.1
20260507034044 10 306 8.0 14.5 0.00 0.00 0.00 95 1019.3
20260507033546 10 309 8.0 14.5 0.00 0.00 0.00 95 1019.3
20260507033048 10 320 9.7 14.5 0.00 0.00 0.00 95 1019.1
20260507032544 10 314 9.7 14.5 0.00 0.00 0.00 95 1019.1
20260507032046 10 312 4.8 14.5 0.00 0.00 0.00 95 1019.1
20260507031547 10 315 8.0 14.5 0.00 0.00 0.00 95 1019.1
20260507031044 10 315 9.7 14.5 0.00 0.00 0.00 95 1018.9
20260507030548 10 316 9.7 14.5 0.00 0.00 0.00 95 1018.9
20260507030054 10 309 6.4 16.1 0.00 0.00 0.00 95 1018.9
20260507025547 10 316 9.7 17.7 0.00 0.00 0.00 95 1018.9
20260507025044 10 307 11.3 17.7 0.00 0.00 0.00 95 1018.9
20260507024554 10 295 9.7 17.7 0.00 0.00 0.00 95 1018.8
20260507024045 10 304 11.3 17.7 0.00 0.00 0.00 94 1018.8